User: anonymous   Login
Location: Delta State University
(33.7460°N, 90.7320°W)
Time: 07:40:34
(UTC-05:00)
Language:

Iridium 13 - Orbit

View from above orbital plane
View from above orbital plane
View from above satellite
View from above satellite

Ground track
Ground track

The orbit data is extracted from the following two-line orbital elements,

1 24840U 97030E   14297.32943012  .00000769  00000-0  26743-3 0  9845
2 24840 086.3999 034.3582 0002375 110.8715 307.2848 14.34219954908369
Epoch (UTC): 24 October 2014 07:54:22
Eccentricity: 0.0002375
inclination: 86.3999°
perigee height: 776 km
apogee height: 779 km
right ascension of ascending node: 34.3582°
argument of perigee: 110.8715°
revolutions per day: 14.34219954
mean anomaly at epoch: 307.2848°
orbit number at epoch: 90836

The dashed part of the orbit path shows where the satellite is in the earth's shadow,  

DLR